Date String (YYYY-MM-DD hh:mm:ss) UTC,Instrument flags,Ambient pressure (hPa),Sample flow (lpm),Bypass flow (lpm),Sample temperature (°C),Ambient temperature (°C),ASC tube jacket temperature (°C),LED temperature (°C),Box temperature (°C),Sample RH (%),Span deviation,Mass concentration (μg/m³),Mass concentration (μg/m³),Mass concentration (μg/m³)
DateTimeUTC,F1_M11,P_M11,Q1_M11,Q2_M11,T1_M11,T2_M11,T3_M11,T4_M11,T5_M11,U1_M11,ZSPAN_M11,X0_M11,X2_M11,X1_M11
2022-11-06 14:00:00,,0821.1,5.01,0.00,23.0,21.6,00.0,31.8,24.9,16.2,0000.0,0005.85,0001.43,0000.82
2022-11-06 14:01:00,,0821.2,5.01,0.00,23.0,21.6,00.0,31.8,24.9,16.2,0000.0,0006.94,0001.48,0000.83
2022-11-06 14:02:00,,0821.2,4.98,0.00,23.0,21.6,00.0,31.8,24.9,16.2,0000.0,0007.91,0001.49,0000.83
2022-11-06 14:03:00,,0821.3,5.00,0.00,23.0,21.6,00.0,31.8,24.9,16.1,0000.0,0007.85,0001.49,0000.83
2022-11-06 14:04:00,,0821.3,5.01,0.00,23.0,21.6,00.0,31.8,24.9,16.1,0000.0,0007.45,0001.47,0000.83
2022-11-06 14:05:00,,0821.3,5.00,0.00,23.0,21.6,00.0,31.8,24.9,16.1,0000.0,0007.44,0001.42,0000.82
2022-11-06 14:06:00,,0821.4,5.00,0.00,23.0,21.6,00.0,31.8,24.9,16.0,0000.0,0007.44,0001.46,0000.83
2022-11-06 14:07:00,,0821.3,4.99,0.00,23.0,21.6,00.0,31.8,24.9,16.0,0000.0,0007.39,0001.51,0000.84
2022-11-06 14:08:00,,0821.3,4.99,0.00,23.0,21.6,00.0,31.8,24.9,16.0,0000.0,0007.34,0001.50,0000.84
2022-11-06 14:09:00,,0821.4,5.01,0.00,23.0,21.6,00.0,31.8,24.9,16.0,0000.0,0007.53,0001.57,0000.84
2022-11-06 14:10:00,,0821.4,5.00,0.00,23.0,21.6,00.0,31.8,24.9,16.3,0000.0,0008.32,0001.62,0000.87
2022-11-06 14:11:00,,0821.4,4.98,0.00,23.0,21.6,00.0,31.8,24.9,16.4,0000.0,0007.93,0001.65,0000.87
2022-11-06 14:12:00,,0821.4,5.01,0.00,23.0,21.6,00.0,31.8,24.9,16.2,0000.0,0007.26,0001.63,0000.86
2022-11-06 14:13:00,,0821.4,5.01,0.00,23.0,21.6,00.0,31.8,24.9,16.2,0000.0,0006.22,0001.69,0000.87
2022-11-06 14:14:00,,0821.4,4.99,0.00,23.0,21.6,00.0,31.8,24.9,16.2,0000.0,0006.71,0001.76,0000.88
2022-11-06 14:15:00,,0821.4,4.99,0.00,23.0,21.6,00.0,31.8,24.9,16.3,0000.0,0006.70,0001.77,0000.89
2022-11-06 14:16:00,,0821.5,5.01,0.00,23.0,21.6,00.0,31.8,24.9,16.5,0000.0,0006.63,0001.80,0000.90
2022-11-06 14:17:00,,0821.6,5.01,0.00,23.0,21.6,00.0,31.8,24.9,16.6,0000.0,0006.85,0001.83,0000.92
2022-11-06 14:18:00,,0821.7,5.00,0.00,23.0,21.6,00.0,31.8,24.9,16.7,0000.0,0007.03,0001.82,0000.91
2022-11-06 14:19:00,,0821.7,4.99,0.00,23.0,21.7,00.0,31.8,24.9,16.7,0000.0,0007.24,0001.83,0000.92
2022-11-06 14:20:00,,0821.6,5.01,0.00,23.0,21.6,00.0,31.8,25.0,16.9,0000.0,0007.63,0001.80,0000.93
2022-11-06 14:21:00,,0821.6,5.00,0.00,23.0,21.6,00.0,31.8,24.9,16.7,0000.0,0006.65,0001.76,0000.93
2022-11-06 14:22:00,,0821.6,5.00,0.00,23.0,21.6,00.0,31.8,25.0,16.6,0000.0,0006.99,0001.80,0000.93
2022-11-06 14:23:00,,0821.6,4.99,0.00,23.0,21.6,00.0,31.8,24.9,16.4,0000.0,0007.06,0001.84,0000.94
2022-11-06 14:24:00,,0821.7,5.00,0.00,23.0,21.6,00.0,31.8,24.9,16.2,0000.0,0007.08,0001.85,0000.93
2022-11-06 14:25:00,,0821.7,5.00,0.00,23.0,21.6,00.0,31.8,24.9,16.2,0000.0,0006.83,0001.82,0000.92
2022-11-06 14:26:00,,0821.7,5.00,0.00,23.0,21.6,00.0,31.8,25.0,16.2,0000.0,0007.08,0001.82,0000.92
2022-11-06 14:27:00,,0821.6,5.00,0.00,23.0,21.6,00.0,31.8,25.0,16.1,0000.0,0007.33,0001.84,0000.92
2022-11-06 14:28:00,,0821.6,5.00,0.00,23.0,21.6,00.0,31.8,25.0,15.9,0000.0,0007.25,0001.80,0000.90
2022-11-06 14:29:00,,0821.6,5.00,0.00,23.0,21.6,00.0,31.8,25.0,15.9,0000.0,0007.51,0001.77,0000.89
2022-11-06 14:30:00,,0821.6,5.00,0.00,23.0,21.6,00.0,31.8,24.9,16.0,0000.0,0007.81,0001.77,0000.88
2022-11-06 14:31:00,,0821.7,5.00,0.00,23.0,21.6,00.0,31.8,24.9,16.0,0000.0,0007.19,0001.77,0000.86
2022-11-06 14:32:00,,0821.8,5.01,0.00,23.0,21.6,00.0,31.8,24.9,16.0,0000.0,0007.00,0001.74,0000.84
2022-11-06 14:33:00,,0821.8,5.01,0.00,23.0,21.6,00.0,31.8,24.9,16.0,0000.0,0007.23,0001.65,0000.82
2022-11-06 14:34:00,,0821.8,4.99,0.00,23.0,21.5,00.0,31.8,24.9,16.1,0000.0,0007.77,0001.60,0000.80
2022-11-06 14:35:00,,0821.8,4.99,0.00,23.0,21.5,00.0,31.8,24.9,16.1,0000.0,0007.77,0001.61,0000.81
2022-11-06 14:36:00,,0822.0,5.00,0.00,23.0,21.6,00.0,31.8,24.9,16.1,0000.0,0007.59,0001.64,0000.81
2022-11-06 14:37:00,,0822.0,5.01,0.00,23.0,21.6,00.0,31.8,24.9,16.1,0000.0,0007.71,0001.73,0000.80
2022-11-06 14:38:00,,0822.1,5.00,0.00,23.0,21.6,00.0,31.8,24.9,16.1,0000.0,0008.06,0001.75,0000.80
2022-11-06 14:39:00,,0822.1,5.01,0.00,23.0,21.6,00.0,31.8,24.9,16.0,0000.0,0008.01,0001.76,0000.80
2022-11-06 14:40:00,,0822.2,5.00,0.00,23.0,21.6,00.0,31.8,24.9,16.0,0000.0,0007.69,0001.84,0000.80
2022-11-06 14:41:00,,0822.2,4.99,0.00,23.0,21.6,00.0,31.8,24.9,16.1,0000.0,0007.22,0001.81,0000.81
2022-11-06 14:42:00,,0822.3,5.00,0.00,23.0,21.6,00.0,31.7,24.9,16.1,0000.0,0007.12,0001.79,0000.80
2022-11-06 14:43:00,,0822.3,5.01,0.00,23.0,21.6,00.0,31.7,24.9,16.2,0000.0,0007.40,0001.80,0000.81
2022-11-06 14:44:00,,0822.4,5.00,0.00,23.0,21.6,00.0,31.7,24.9,16.1,0000.0,0008.33,0001.83,0000.81
2022-11-06 14:45:00,,0822.4,5.00,0.00,23.0,21.6,00.0,31.7,24.9,16.1,0000.0,0008.18,0001.85,0000.82
2022-11-06 14:46:00,,0822.4,5.00,0.00,23.0,21.6,00.0,31.7,24.9,16.2,0000.0,0008.52,0001.83,0000.82
2022-11-06 14:47:00,,0822.4,5.00,0.00,23.0,21.6,00.0,31.7,24.9,16.2,0000.0,0009.37,0001.80,0000.82
2022-11-06 14:48:00,,0822.4,5.00,0.00,23.0,21.6,00.0,31.7,24.9,16.2,0000.0,0009.48,0001.75,0000.81
2022-11-06 14:49:00,,0822.4,5.00,0.00,23.0,21.6,00.0,31.8,24.9,16.3,0000.0,0009.42,0001.70,0000.80
2022-11-06 14:50:00,,0822.4,4.99,0.00,23.0,21.6,00.0,31.8,24.9,16.3,0000.0,0009.50,0001.75,0000.80
2022-11-06 14:51:00,,0822.4,5.00,0.00,23.0,21.7,00.0,31.8,24.9,16.2,0000.0,0009.48,0001.72,0000.79
2022-11-06 14:52:00,,0822.4,5.00,0.00,23.0,21.7,00.0,31.8,24.9,16.5,0000.0,0010.01,0001.74,0000.79
2022-11-06 14:53:00,,0822.5,5.01,0.00,23.0,21.7,00.0,31.8,24.9,16.7,0000.0,0010.51,0001.75,0000.81
2022-11-06 14:54:00,,0822.5,5.00,0.00,23.0,21.7,00.0,31.8,24.9,17.2,0000.0,0010.39,0001.78,0000.81
2022-11-06 14:55:00,,0822.6,5.00,0.00,23.0,21.7,00.0,31.8,25.0,17.0,0000.0,0008.93,0001.80,0000.82
2022-11-06 14:56:00,,0822.6,5.00,0.00,23.0,21.7,00.0,31.8,25.0,16.4,0000.0,0008.56,0001.77,0000.82
2022-11-06 14:57:00,,0822.6,5.00,0.00,23.0,21.7,00.0,31.8,25.0,16.1,0000.0,0008.20,0001.75,0000.81
2022-11-06 14:58:00,,0822.7,5.00,0.00,23.0,21.7,00.0,31.8,25.0,16.0,0000.0,0007.33,0001.74,0000.80
2022-11-06 14:59:00,,0822.7,5.00,0.00,23.0,21.7,00.0,31.8,25.0,16.0,0000.0,0006.65,0001.69,0000.79
